Weather History for KT65 - January, 2013

Change the Weather History Date:

Thursday, January 24, 2013

  Actual Average (KMFE) Record (KMFE)
Temperature  
Mean Temperature 71 °F 61 °F  
Max Temperature 83 °F 72 °F 91 °F (1943)
Min Temperature 59 °F 51 °F 25 °F (1963)
Degree Days  
Heating Degree Days 0 6  
Month to date heating degree days 155  
Since 1 July heating degree days 392  
Cooling Degree Days 6 2  
Month to date cooling degree days 48  
Year to date cooling degree days 48  
Growing Degree Days 21 (Base 50)    
Moisture  
Dew Point 60 °F    
Average Humidity 76    
Maximum Humidity 93    
Minimum Humidity 43    
Precipitation  
Precipitation 0.00 in 0.04 in 1.51 in (1984)
Month to date precipitation 0.81  
Year to date precipitation 0.81  
Sea Level Pressure  
Sea Level Pressure 30.21 in    
Wind  
Wind Speed 7 mph (SSE)    
Max Wind Speed 16 mph    
Max Gust Speed 23 mph    
Visibility 8 miles    
Events Fog    
T = Trace of Precipitation, MM = Missing Value Source: NWS Daily Summary

Daily Weather History Graph

Daily Weather History Graph

Search for Another Location

Airport or City:

Trip Planner

Search our weather history database for the weather conditions in past years. The results will help you decide how hot, cold, wet, or windy it might be!

Date:

Astronomy

Jan. 24, 2013 Rise Set
Actual Time 7:19 AM CST 6:09 PM CST
Civil Twilight 6:54 AM CST 6:33 PM CST
Nautical Twilight 6:26 AM CST 7:01 PM CST
Astronomical Twilight 5:59 AM CST 7:29 PM CST
Moon 4:15 PM CST (1/24) 5:14 AM CST (1/24)
Length of Visible Light 11h 38m
Length of Day
10h 50m
Waxing Gibbous, 94% of the Moon is Illuminated
Jan 24
Waxing Gibbous
Jan 26
Full
Feb 3
Last Quarter
Feb 10
New
Feb 17
First Quarter

Hourly Weather History & Observations

Time (CST) Temp. Heat Index Dew Point Humidity Pressure Visibility Wind Dir Wind Speed Gust Speed Precip Events Conditions
12:15 AM 63.7 °F - 59.5 °F 86% 30.26 in 10.0 mi SSE 6.9 mph - N/A   Clear
12:35 AM 63.5 °F - 59.5 °F 87% 30.26 in 10.0 mi SSE 5.8 mph - N/A   Clear
12:55 AM 63.5 °F - 59.5 °F 87% 30.25 in 10.0 mi SSE 5.8 mph - N/A   Clear
1:15 AM 63.5 °F - 59.5 °F 87% 30.25 in 10.0 mi SSE 6.9 mph - N/A   Clear
1:35 AM 63.3 °F - 59.9 °F 89% 30.24 in 10.0 mi SSE 6.9 mph - N/A   Clear
1:55 AM 63.0 °F - 59.5 °F 89% 30.24 in 10.0 mi SSE 3.5 mph - N/A   Clear
2:15 AM 62.6 °F - 59.5 °F 90% 30.24 in 10.0 mi SSE 5.8 mph - N/A   Clear
2:35 AM 62.4 °F - 59.4 °F 90% 30.24 in 10.0 mi SSE 4.6 mph - N/A   Clear
2:55 AM 61.9 °F - 58.8 °F 90% 30.24 in 10.0 mi Calm Calm - N/A   Clear
3:15 AM 61.0 °F - 58.3 °F 91% 30.24 in 10.0 mi South 3.5 mph - N/A   Clear
3:35 AM 60.8 °F - 58.3 °F 91% 30.24 in 10.0 mi South 3.5 mph - N/A   Clear
3:55 AM 60.8 °F - 58.3 °F 91% 30.24 in 7.0 mi SSE 3.5 mph - N/A   Clear
4:15 AM 61.0 °F - 58.6 °F 92% 30.24 in 7.0 mi Calm Calm - N/A   Scattered Clouds
4:35 AM 60.8 °F - 58.3 °F 91% 30.24 in 7.0 mi Calm Calm - N/A   Clear
4:55 AM 59.9 °F - 57.7 °F 93% 30.24 in 5.0 mi Calm Calm - N/A   Clear
5:15 AM 60.1 °F - 58.1 °F 93% 30.24 in 5.0 mi Calm Calm - N/A   Clear
5:35 AM 59.9 °F - 57.9 °F 93% 30.24 in 7.0 mi SE 4.6 mph - N/A   Clear
5:55 AM 60.4 °F - 58.3 °F 93% 30.24 in 7.0 mi SSE 3.5 mph - N/A   Clear
6:15 AM 59.7 °F - 57.6 °F 93% 30.24 in 7.0 mi SSE 4.6 mph - N/A   Clear
6:35 AM 59.5 °F - 57.4 °F 93% 30.24 in 7.0 mi SSE 3.5 mph - N/A   Clear
6:55 AM 59.2 °F - 57.2 °F 93% 30.24 in 5.0 mi South 3.5 mph - N/A   Clear
7:15 AM 59.0 °F - 56.8 °F 93% 30.24 in 5.0 mi South 3.5 mph - N/A   Clear
7:35 AM 59.0 °F - 57.0 °F 93% 30.24 in 3.0 mi SSW 3.5 mph - N/A   Clear
7:55 AM 59.9 °F - 57.7 °F 93% 30.24 in 3.0 mi SSW 3.5 mph - N/A   Clear
8:15 AM 60.1 °F - 58.1 °F 93% 30.24 in 0.5 mi Calm Calm - N/A Fog Fog
8:35 AM 60.3 °F - 58.3 °F 93% 30.25 in 0.2 mi SW 3.5 mph - N/A Fog Fog
8:55 AM 61.2 °F - 59.2 °F 93% 30.26 in 0.2 mi Calm Calm - N/A Fog Fog
9:15 AM 62.6 °F - 60.6 °F 93% 30.27 in 1.0 mi SSW 3.5 mph - N/A   Overcast
9:35 AM 63.7 °F - 61.7 °F 93% 30.28 in 4.0 mi SSW 4.6 mph - N/A   Overcast
9:55 AM 65.5 °F - 62.6 °F 90% 30.29 in 10.0 mi South 5.8 mph - N/A   Overcast
10:15 AM 68.2 °F - 62.6 °F 82% 30.29 in 10.0 mi South 4.6 mph - N/A   Overcast
10:35 AM 70.9 °F - 62.8 °F 75% 30.29 in 10.0 mi SSW 9.2 mph - N/A   Mostly Cloudy
10:55 AM 73.4 °F - 63.5 °F 71% 30.29 in 10.0 mi South 10.4 mph - N/A   Mostly Cloudy
11:15 AM 75.2 °F - 63.3 °F 66% 30.28 in 10.0 mi South 10.4 mph - N/A   Mostly Cloudy
11:35 AM 75.4 °F - 63.3 °F 66% 30.27 in 10.0 mi South 12.7 mph 18.4 mph N/A   Overcast
11:55 AM 77.4 °F - 62.4 °F 60% 30.26 in 10.0 mi South 11.5 mph - N/A   Mostly Cloudy
12:15 PM 77.7 °F - 61.7 °F 58% 30.25 in 7.0 mi SSE 13.8 mph - N/A   Scattered Clouds
12:35 PM 79.2 °F - 61.2 °F 54% 30.24 in 10.0 mi SSE 10.4 mph - N/A   Clear
12:55 PM 80.8 °F 81.6 °F 61.2 °F 51% 30.22 in 7.0 mi SSE 13.8 mph - N/A   Clear
1:15 PM 81.0 °F 81.7 °F 60.4 °F 50% 30.21 in 10.0 mi South 13.8 mph 18.4 mph N/A   Clear
1:35 PM 81.9 °F 82.5 °F 61.0 °F 49% 30.20 in 7.0 mi SE 11.5 mph 16.1 mph N/A   Clear
1:55 PM 82.4 °F 82.3 °F 58.6 °F 44% 30.19 in 10.0 mi South 15.0 mph - N/A   Clear
2:15 PM 83.7 °F 83.4 °F 59.2 °F 43% 30.17 in 7.0 mi SSE 11.5 mph 16.1 mph N/A   Clear
2:35 PM 83.3 °F 83.2 °F 59.4 °F 44% 30.16 in 10.0 mi South 12.7 mph 16.1 mph N/A   Clear
2:55 PM 83.3 °F 83.2 °F 59.4 °F 44% 30.15 in 7.0 mi SSE 13.8 mph 20.7 mph N/A   Clear
3:15 PM 83.1 °F 83.0 °F 59.0 °F 44% 30.14 in 7.0 mi SSE 12.7 mph 20.7 mph N/A   Clear
3:35 PM 83.3 °F 83.1 °F 58.5 °F 43% 30.14 in 10.0 mi South 12.7 mph 19.6 mph N/A   Clear
3:55 PM 83.3 °F 83.1 °F 58.5 °F 43% 30.14 in 10.0 mi SE 12.7 mph 17.3 mph N/A   Clear
4:15 PM 82.4 °F 82.7 °F 60.4 °F 47% 30.14 in 10.0 mi SSE 15.0 mph 20.7 mph N/A   Clear
4:35 PM 81.5 °F 82.1 °F 60.8 °F 49% 30.14 in 10.0 mi SSE 15.0 mph 20.7 mph N/A   Clear
4:55 PM 80.6 °F 81.4 °F 60.6 °F 50% 30.14 in 7.0 mi SSE 16.1 mph 20.7 mph N/A   Clear
5:15 PM 79.3 °F - 60.3 °F 52% 30.14 in 10.0 mi SSE 16.1 mph 23.0 mph N/A   Clear
5:35 PM 77.9 °F - 60.3 °F 54% 30.13 in 7.0 mi SSE 13.8 mph 21.9 mph N/A   Clear
5:55 PM 76.1 °F - 60.8 °F 59% 30.14 in 10.0 mi SSE 13.8 mph 23.0 mph N/A   Clear
6:15 PM 74.5 °F - 61.0 °F 63% 30.14 in 10.0 mi SSE 16.1 mph - N/A   Clear
6:35 PM 73.2 °F - 61.0 °F 65% 30.15 in 10.0 mi SSE 15.0 mph - N/A   Clear
6:55 PM 72.0 °F - 61.5 °F 70% 30.15 in 10.0 mi SSE 9.2 mph 17.3 mph N/A   Clear
7:35 PM 70.3 °F - 62.2 °F 75% 30.17 in 10.0 mi SSE 11.5 mph 18.4 mph N/A   Clear
7:55 PM 69.8 °F - 62.1 °F 76% 30.17 in 10.0 mi SSE 11.5 mph - N/A   Clear
8:15 PM 68.9 °F - 62.1 °F 79% 30.18 in 10.0 mi SSE 10.4 mph - N/A   Clear
8:35 PM 68.5 °F - 61.9 °F 79% 30.18 in 10.0 mi SSE 10.4 mph - N/A   Clear
8:55 PM 68.0 °F - 61.9 °F 81% 30.19 in 10.0 mi SSE 9.2 mph - N/A   Clear
9:35 PM 67.1 °F - 61.7 °F 83% 30.18 in 10.0 mi SSE 8.1 mph - N/A   Clear
9:55 PM 66.7 °F - 61.7 °F 84% 30.19 in 10.0 mi SSE 6.9 mph - N/A   Clear
10:15 PM 66.2 °F - 61.5 °F 85% 30.19 in 10.0 mi SSE 6.9 mph - N/A   Clear
10:35 PM 65.5 °F - 61.2 °F 86% 30.20 in 10.0 mi SSE 5.8 mph - N/A   Clear
10:55 PM 64.8 °F - 60.8 °F 87% 30.20 in 10.0 mi South 4.6 mph - N/A   Clear
11:15 PM 64.2 °F - 60.8 °F 89% 30.19 in 10.0 mi South 5.8 mph - N/A   Clear
11:35 PM 63.9 °F - 60.4 °F 89% 30.18 in 10.0 mi SSE 5.8 mph - N/A   Clear
11:55 PM 63.5 °F - 60.1 °F 89% 30.18 in 10.0 mi SSE 5.8 mph - N/A   Clear